START_TIME,STEP,MOV.,AL01,t_acc.,AL02,t_acc.,E37,t_acc.,H21,t_acc.
1980-11-15 09:00:22.890 ,1,0,0.,24.0,0.,24.0,0.,24.0,0.,24.0
1980-11-15 09:00:22.890 ,1,0,0.,24.0,0.,24.0,0.,24.0,0.,24.0
1980-11-15 09:00:46.890 ,0,1,0.,24.0,0.,24.0,0.,24.0,0.,24.0
1980-11-15 09:01:10.890 ,0,0,0.,24.0,0.,24.0,0.,24.0,0.,24.0
1980-11-15 09:01:34.890 ,0,1,0.,24.0,0.,24.0,0.,24.0,0.,24.0
1980-11-15 09:01:58.890 ,0,0,0.,24.0,0.,24.0,0.,24.0,0.,24.0
1980-11-15 09:02:22.890 ,1,1,0.,24.0,0.,24.0,1.,24.0,0.,24.0
1980-11-15 09:02:46.890 ,1,0,0.,24.0,0.,24.0,0.,24.0,0.,24.0
1980-11-15 09:03:10.890 ,2,1,0.,24.0,0.,24.0,0.,24.0,0.,24.0
1980-11-15 09:03:34.890 ,2,0,0.,24.0,0.,24.0,2.,24.0,0.,24.0
1980-11-15 09:03:58.890 ,3,1,0.,24.0,0.,24.0,0.,24.0,0.,24.0
1980-11-15 09:04:22.890 ,3,0,0.,24.0,0.,24.0,1.,24.0,0.,24.0
1980-11-15 09:04:46.890 ,4,1,0.,24.0,0.,24.0,0.,24.0,0.,24.0
1980-11-15 09:05:10.890 ,4,0,0.,24.0,0.,24.0,0.,24.0,0.,24.0
1980-11-15 09:05:34.890 ,5,1,0.,24.0,0.,24.0,0.,24.0,0.,24.0
1980-11-15 09:05:58.890 ,5,0,0.,24.0,0.,24.0,1.,24.0,0.,24.0
1980-11-15 09:06:22.890 ,6,1,0.,24.0,0.,24.0,0.,24.0,0.,24.0
1980-11-15 09:06:46.890 ,6,0,0.,24.0,0.,24.0,0.,24.0,0.,24.0
1980-11-15 09:07:10.890 ,7,1,3.,24.0,0.,24.0,0.,24.0,0.,24.0
1980-11-15 09:07:34.890 ,7,0,12.,24.0,0.,24.0,0.,24.0,0.,24.0
1980-11-15 09:07:58.890 ,7,1,11.,24.0,0.,24.0,1.,24.0,0.,24.0
1980-11-15 09:08:22.890 ,7,0,16.,24.0,0.,24.0,0.,24.0,0.,24.0
1980-11-15 09:08:46.890 ,6,1,10.,24.0,0.,24.0,0.,24.0,0.,24.0
1980-11-15 09:09:10.890 ,6,0,0.,24.0,0.,24.0,0.,24.0,0.,24.0
1980-11-15 09:09:34.890 ,5,1,0.,24.0,0.,24.0,3.,24.0,0.,24.0
1980-11-15 09:09:58.890 ,5,0,0.,24.0,0.,24.0,1.,24.0,0.,24.0
1980-11-15 09:10:22.890 ,4,1,0.,24.0,0.,24.0,0.,24.0,0.,24.0
1980-11-15 09:10:46.890 ,4,0,0.,24.0,0.,24.0,1.,24.0,0.,24.0
1980-11-15 09:11:10.890 ,3,1,0.,24.0,0.,24.0,0.,24.0,0.,24.0
1980-11-15 09:11:34.890 ,3,0,0.,24.0,0.,24.0,0.,24.0,0.,24.0
1980-11-15 09:11:58.890 ,2,1,0.,24.0,0.,24.0,0.,24.0,0.,24.0
1980-11-15 09:12:22.890 ,2,0,0.,24.0,0.,24.0,1.,24.0,0.,24.0
1980-11-15 09:12:46.890 ,1,1,0.,24.0,0.,24.0,1.,24.0,0.,24.0
1980-11-15 09:13:10.890 ,1,0,0.,24.0,0.,24.0,1.,24.0,0.,24.0
1980-11-15 09:13:34.890 ,0,1,0.,24.0,0.,24.0,0.,24.0,0.,24.0
1980-11-15 09:13:58.890 ,0,0,0.,24.0,0.,24.0,0.,24.0,0.,24.0
1980-11-15 09:14:22.890 ,0,1,0.,24.0,0.,24.0,1.,24.0,0.,24.0
1980-11-15 09:14:46.890 ,0,0,0.,24.0,0.,24.0,1.,24.0,0.,24.0
1980-11-15 09:15:10.890 ,1,1,0.,24.0,0.,24.0,1.,24.0,0.,24.0
1980-11-15 09:15:34.890 ,1,0,0.,24.0,0.,24.0,1.,24.0,0.,24.0
1980-11-15 09:15:58.890 ,2,1,0.,24.0,0.,24.0,0.,24.0,0.,24.0
1980-11-15 09:16:22.890 ,2,0,0.,24.0,0.,24.0,1.,24.0,0.,24.0
1980-11-15 09:16:46.890 ,3,1,0.,24.0,0.,24.0,0.,24.0,0.,24.0
1980-11-15 09:17:10.890 ,3,0,0.,24.0,0.,24.0,0.,24.0,0.,24.0
1980-11-15 09:17:34.890 ,4,1,1.,24.0,0.,24.0,0.,24.0,0.,24.0
1980-11-15 09:17:58.890 ,4,0,0.,24.0,0.,24.0,0.,24.0,0.,24.0
1980-11-15 09:18:22.890 ,5,1,0.,24.0,0.,24.0,0.,24.0,0.,24.0
1980-11-15 09:18:46.890 ,5,0,0.,24.0,0.,24.0,0.,24.0,0.,24.0
1980-11-15 09:19:10.890 ,6,1,0.,24.0,0.,24.0,1.,24.0,0.,24.0
1980-11-15 09:19:34.890 ,6,0,0.,24.0,0.,24.0,0.,24.0,0.,24.0
1980-11-15 09:19:58.890 ,7,1,2.,24.0,0.,24.0,0.,24.0,0.,24.0
1980-11-15 09:20:22.890 ,7,0,7.,24.0,0.,24.0,0.,24.0,0.,24.0
1980-11-15 09:20:46.890 ,7,1,5.,24.0,0.,24.0,1.,24.0,0.,24.0
1980-11-15 09:21:10.890 ,7,0,7.,24.0,0.,24.0,1.,24.0,0.,24.0
1980-11-15 09:21:34.890 ,6,1,8.,24.0,0.,24.0,1.,24.0,0.,24.0
1980-11-15 09:21:58.890 ,6,0,0.,24.0,0.,24.0,1.,24.0,0.,24.0
1980-11-15 09:22:22.890 ,5,1,0.,24.0,0.,24.0,0.,24.0,0.,24.0
1980-11-15 09:22:46.890 ,5,0,0.,24.0,0.,24.0,0.,24.0,0.,24.0
1980-11-15 09:23:10.890 ,4,1,0.,24.0,0.,24.0,0.,24.0,0.,24.0
1980-11-15 09:23:34.890 ,4,0,0.,24.0,0.,24.0,0.,24.0,0.,24.0
1980-11-15 09:23:58.890 ,3,1,0.,24.0,0.,24.0,0.,24.0,0.,24.0
1980-11-15 09:24:22.890 ,3,0,0.,24.0,0.,24.0,2.,24.0,0.,24.0
1980-11-15 09:24:46.890 ,2,1,0.,24.0,0.,24.0,0.,24.0,0.,24.0
1980-11-15 09:25:10.890 ,2,0,0.,24.0,0.,24.0,1.,24.0,0.,24.0
1980-11-15 09:25:34.890 ,1,1,0.,24.0,0.,24.0,1.,24.0,0.,24.0
1980-11-15 09:25:58.890 ,1,0,0.,24.0,0.,24.0,0.,24.0,0.,24.0
1980-11-15 09:26:22.890 ,0,1,0.,24.0,0.,24.0,0.,24.0,0.,24.0
1980-11-15 09:26:46.890 ,0,0,0.,24.0,0.,24.0,0.,24.0,0.,24.0
1980-11-15 09:27:10.890 ,0,1,0.,24.0,0.,24.0,1.,24.0,0.,24.0
1980-11-15 09:27:34.890 ,0,0,0.,24.0,0.,24.0,0.,24.0,0.,24.0
1980-11-15 09:27:58.890 ,1,1,0.,24.0,0.,24.0,0.,24.0,0.,24.0
1980-11-15 09:28:22.890 ,1,0,0.,24.0,0.,24.0,0.,24.0,0.,24.0
1980-11-15 09:28:46.890 ,2,1,0.,24.0,0.,24.0,0.,24.0,0.,24.0
1980-11-15 09:29:10.890 ,2,0,0.,24.0,0.,24.0,1.,24.0,0.,24.0
1980-11-15 09:29:34.890 ,3,1,0.,24.0,0.,24.0,1.,24.0,0.,24.0
1980-11-15 09:29:58.890 ,3,0,0.,24.0,0.,24.0,0.,24.0,0.,24.0
1980-11-15 09:30:22.890 ,4,1,0.,24.0,0.,24.0,1.,24.0,0.,24.0
1980-11-15 09:30:46.890 ,4,0,0.,24.0,0.,24.0,1.,24.0,0.,24.0
1980-11-15 09:31:10.890 ,5,1,0.,24.0,0.,24.0,0.,24.0,0.,24.0
1980-11-15 09:31:34.890 ,5,0,0.,24.0,0.,24.0,0.,24.0,0.,24.0
1980-11-15 09:31:58.890 ,6,1,0.,24.0,0.,24.0,0.,24.0,0.,24.0
1980-11-15 09:32:22.890 ,6,0,0.,24.0,0.,24.0,0.,24.0,0.,24.0
1980-11-15 09:32:46.890 ,7,1,1.,24.0,0.,24.0,0.,24.0,0.,24.0
1980-11-15 09:33:10.890 ,7,0,15.,24.0,0.,24.0,3.,24.0,0.,24.0
1980-11-15 09:33:34.890 ,7,1,14.,24.0,0.,24.0,0.,24.0,0.,24.0
1980-11-15 09:33:58.890 ,7,0,15.,24.0,0.,24.0,0.,24.0,0.,24.0
1980-11-15 09:34:22.890 ,6,1,8.,24.0,0.,24.0,0.,24.0,0.,24.0
1980-11-15 09:34:46.890 ,6,0,0.,24.0,0.,24.0,0.,24.0,0.,24.0
1980-11-15 09:35:10.890 ,5,1,0.,24.0,0.,24.0,2.,24.0,0.,24.0
1980-11-15 09:35:34.890 ,0,0,0.,24.0,0.,24.0,0.,24.0,0.,24.0
1980-11-15 09:43:10.290 ,0,0,,0,,0,,0,,0
1980-11-15 09:43:10.890 ,0,0,0.,24.0,0.,24.0,0.,24.0,0.,24.0
1980-11-15 09:43:34.890 ,0,0,0.,24.0,0.,24.0,1.,24.0,0.,24.0
1980-11-15 09:43:58.890 ,5,1,0.,24.0,0.,24.0,0.,24.0,0.,24.0
1980-11-15 09:44:22.890 ,5,0,0.,24.0,0.,24.0,1.,24.0,0.,24.0
1980-11-15 09:44:46.890 ,6,1,0.,24.0,0.,24.0,0.,24.0,0.,24.0
1980-11-15 09:45:10.890 ,6,0,0.,24.0,0.,24.0,1.,24.0,0.,24.0
1980-11-15 09:45:34.890 ,7,1,3.,24.0,0.,24.0,1.,24.0,0.,24.0
1980-11-15 09:45:58.890 ,7,0,12.,24.0,0.,24.0,0.,24.0,0.,24.0
1980-11-15 09:46:22.890 ,7,1,7.,24.0,0.,24.0,0.,24.0,0.,24.0
1980-11-15 09:46:46.890 ,7,0,17.,24.0,0.,24.0,0.,24.0,0.,24.0
1980-11-15 09:47:10.890 ,6,1,10.,24.0,0.,24.0,0.,24.0,0.,24.0
1980-11-15 09:47:34.890 ,6,0,0.,24.0,0.,24.0,0.,24.0,0.,24.0
1980-11-15 09:47:58.890 ,5,1,0.,24.0,0.,24.0,0.,24.0,0.,24.0
1980-11-15 09:48:22.890 ,5,0,0.,24.0,0.,24.0,0.,24.0,0.,24.0
1980-11-15 09:48:46.890 ,4,1,0.,24.0,0.,24.0,1.,24.0,0.,24.0
1980-11-15 09:49:10.890 ,4,0,0.,24.0,0.,24.0,0.,24.0,0.,24.0
1980-11-15 09:49:34.890 ,3,1,0.,24.0,0.,24.0,0.,24.0,0.,24.0
1980-11-15 09:49:58.890 ,3,0,0.,24.0,0.,24.0,0.,24.0,0.,24.0
1980-11-15 09:50:22.890 ,2,1,0.,24.0,0.,24.0,0.,24.0,0.,24.0
1980-11-15 09:50:46.890 ,2,0,0.,24.0,0.,24.0,0.,24.0,0.,24.0
1980-11-15 09:51:10.890 ,1,1,0.,24.0,0.,24.0,0.,24.0,0.,24.0
1980-11-15 09:51:34.890 ,1,0,0.,24.0,0.,24.0,0.,24.0,0.,24.0
1980-11-15 09:51:58.890 ,0,1,0.,24.0,0.,24.0,1.,24.0,0.,24.0
1980-11-15 09:52:22.890 ,0,0,0.,24.0,0.,24.0,1.,24.0,0.,24.0
1980-11-15 09:52:46.890 ,0,1,0.,24.0,0.,24.0,0.,24.0,0.,24.0
1980-11-15 09:53:10.890 ,0,0,0.,24.0,0.,24.0,2.,24.0,0.,24.0
1980-11-15 09:53:34.890 ,1,1,0.,24.0,0.,24.0,0.,24.0,0.,24.0
1980-11-15 09:53:58.890 ,1,0,0.,24.0,0.,24.0,0.,24.0,0.,24.0
1980-11-15 09:54:22.890 ,2,1,0.,24.0,0.,24.0,0.,24.0,0.,24.0
1980-11-15 09:54:46.890 ,2,0,0.,24.0,0.,24.0,0.,24.0,0.,24.0
1980-11-15 09:55:10.890 ,3,1,0.,24.0,0.,24.0,0.,24.0,0.,24.0
1980-11-15 09:55:34.890 ,3,0,0.,24.0,0.,24.0,0.,24.0,0.,24.0
1980-11-15 09:55:58.890 ,4,1,0.,24.0,0.,24.0,0.,24.0,0.,24.0
1980-11-15 09:56:22.890 ,4,0,0.,24.0,0.,24.0,0.,24.0,0.,24.0
1980-11-15 09:56:46.890 ,5,1,0.,24.0,0.,24.0,0.,24.0,0.,24.0
1980-11-15 09:57:10.890 ,5,0,0.,24.0,0.,24.0,2.,24.0,0.,24.0
1980-11-15 09:57:34.890 ,6,1,0.,24.0,0.,24.0,0.,24.0,0.,24.0
1980-11-15 09:57:58.890 ,6,0,0.,24.0,0.,24.0,2.,24.0,0.,24.0
1980-11-15 09:58:22.890 ,7,1,3.,24.0,0.,24.0,2.,24.0,0.,24.0
1980-11-15 09:58:46.890 ,7,0,13.,24.0,0.,24.0,0.,24.0,0.,24.0
1980-11-15 09:59:10.890 ,7,1,9.,24.0,0.,24.0,0.,24.0,0.,24.0
1980-11-15 09:59:34.890 ,7,0,14.,24.0,0.,24.0,0.,24.0,0.,24.0
1980-11-15 09:59:58.890 ,6,1,4.,24.0,0.,24.0,0.,24.0,0.,24.0
1980-11-15 10:00:22.890 ,6,0,0.,24.0,0.,24.0,1.,24.0,0.,24.0
1980-11-15 10:00:46.890 ,5,1,0.,24.0,0.,24.0,0.,24.0,0.,24.0
1980-11-15 10:01:10.890 ,5,0,0.,24.0,0.,24.0,0.,24.0,0.,24.0
1980-11-15 10:01:34.890 ,4,1,0.,24.0,0.,24.0,1.,24.0,0.,24.0
1980-11-15 10:01:58.890 ,4,0,0.,24.0,0.,24.0,1.,24.0,0.,24.0
1980-11-15 10:02:22.890 ,3,1,0.,24.0,0.,24.0,0.,24.0,0.,24.0
1980-11-15 10:02:46.890 ,3,0,0.,24.0,0.,24.0,1.,24.0,0.,24.0
1980-11-15 10:03:10.890 ,2,1,0.,24.0,0.,24.0,0.,24.0,0.,24.0
1980-11-15 10:03:34.890 ,2,0,0.,24.0,0.,24.0,0.,24.0,0.,24.0
1980-11-15 10:03:58.890 ,1,1,0.,24.0,0.,24.0,0.,24.0,0.,24.0
1980-11-15 10:04:22.890 ,1,0,0.,24.0,0.,24.0,0.,24.0,0.,24.0
1980-11-15 10:04:46.890 ,0,1,0.,24.0,0.,24.0,0.,24.0,0.,24.0
1980-11-15 10:05:10.890 ,0,0,0.,24.0,1.,24.0,1.,24.0,0.,24.0
1980-11-15 10:05:34.890 ,0,1,0.,24.0,0.,24.0,0.,24.0,0.,24.0
1980-11-15 10:05:58.890 ,0,0,0.,24.0,0.,24.0,1.,24.0,0.,24.0
1980-11-15 10:06:22.890 ,1,1,0.,24.0,1.,24.0,0.,24.0,0.,24.0
1980-11-15 10:06:46.890 ,1,0,0.,24.0,0.,24.0,0.,24.0,0.,24.0
1980-11-15 10:07:10.890 ,2,1,1.,24.0,0.,24.0,0.,24.0,0.,24.0
1980-11-15 10:07:34.890 ,2,0,0.,24.0,0.,24.0,0.,24.0,0.,24.0
1980-11-15 10:07:58.890 ,3,1,0.,24.0,0.,24.0,0.,24.0,0.,24.0
1980-11-15 10:08:22.890 ,3,0,0.,24.0,0.,24.0,0.,24.0,0.,24.0
1980-11-15 10:08:46.890 ,4,1,1.,24.0,0.,24.0,0.,24.0,0.,24.0
1980-11-15 10:09:10.890 ,4,0,0.,24.0,0.,24.0,1.,24.0,0.,24.0
1980-11-15 10:09:34.890 ,5,1,0.,24.0,0.,24.0,0.,24.0,0.,24.0
1980-11-15 10:09:58.890 ,5,0,0.,24.0,0.,24.0,0.,24.0,0.,24.0
1980-11-15 10:10:22.890 ,6,1,0.,24.0,0.,24.0,0.,24.0,0.,24.0
1980-11-15 10:10:46.890 ,6,0,0.,24.0,0.,24.0,0.,24.0,0.,24.0
1980-11-15 10:11:10.890 ,7,1,2.,24.0,0.,24.0,1.,24.0,0.,24.0
1980-11-15 10:11:34.890 ,7,0,12.,24.0,0.,24.0,0.,24.0,0.,24.0
1980-11-15 10:11:58.890 ,7,1,10.,24.0,0.,24.0,0.,24.0,0.,24.0
1980-11-15 10:12:22.890 ,7,0,7.,24.0,0.,24.0,0.,24.0,0.,24.0
1980-11-15 10:12:46.890 ,6,1,10.,24.0,0.,24.0,1.,24.0,0.,24.0
1980-11-15 10:13:10.890 ,6,0,0.,24.0,0.,24.0,0.,24.0,0.,24.0
1980-11-15 10:13:34.890 ,5,1,0.,24.0,0.,24.0,1.,24.0,0.,24.0
1980-11-15 10:13:58.890 ,5,0,0.,24.0,0.,24.0,0.,24.0,0.,24.0
1980-11-15 10:14:22.890 ,4,1,0.,24.0,0.,24.0,0.,24.0,0.,24.0
1980-11-15 10:14:46.890 ,4,0,0.,24.0,0.,24.0,0.,24.0,0.,24.0
1980-11-15 10:15:10.890 ,3,1,0.,24.0,1.,24.0,0.,24.0,0.,24.0
1980-11-15 10:15:34.890 ,3,0,0.,24.0,0.,24.0,0.,24.0,0.,24.0
1980-11-15 10:15:58.890 ,2,1,0.,24.0,0.,24.0,0.,24.0,0.,24.0
1980-11-15 10:16:22.890 ,2,0,0.,24.0,0.,24.0,1.,24.0,0.,24.0
1980-11-15 10:16:46.890 ,1,1,0.,24.0,0.,24.0,0.,24.0,0.,24.0
1980-11-15 10:17:10.890 ,1,0,0.,24.0,0.,24.0,1.,24.0,0.,24.0
1980-11-15 10:17:34.890 ,0,1,0.,24.0,0.,24.0,0.,24.0,0.,24.0
1980-11-15 10:17:58.890 ,0,0,0.,24.0,0.,24.0,0.,24.0,0.,24.0
1980-11-15 10:18:22.890 ,0,1,0.,24.0,0.,24.0,1.,24.0,0.,24.0
1980-11-15 10:18:46.890 ,0,0,0.,24.0,0.,24.0,0.,24.0,0.,24.0
1980-11-15 10:19:10.890 ,1,1,0.,24.0,0.,24.0,0.,24.0,0.,24.0
1980-11-15 10:19:34.890 ,1,0,0.,24.0,0.,24.0,1.,24.0,0.,24.0
1980-11-15 10:19:58.890 ,2,1,0.,24.0,0.,24.0,1.,24.0,0.,24.0
1980-11-15 10:20:22.890 ,2,0,0.,24.0,0.,24.0,0.,24.0,0.,24.0
1980-11-15 10:20:46.890 ,3,1,0.,24.0,0.,24.0,0.,24.0,0.,24.0
1980-11-15 10:21:10.890 ,3,0,0.,24.0,0.,24.0,0.,24.0,0.,24.0
1980-11-15 10:21:34.890 ,4,1,0.,24.0,0.,24.0,1.,24.0,0.,24.0
1980-11-15 10:21:58.890 ,4,0,0.,24.0,0.,24.0,1.,24.0,0.,24.0
1980-11-15 10:22:22.890 ,5,1,0.,24.0,0.,24.0,0.,24.0,0.,24.0
1980-11-15 10:22:46.890 ,5,0,0.,24.0,0.,24.0,0.,24.0,0.,24.0
1980-11-15 10:23:10.890 ,6,1,0.,24.0,0.,24.0,0.,24.0,0.,24.0
1980-11-15 10:23:34.890 ,6,0,0.,24.0,0.,24.0,0.,24.0,0.,24.0
1980-11-15 10:23:58.890 ,7,1,3.,24.0,0.,24.0,0.,24.0,0.,24.0
1980-11-15 10:24:22.890 ,7,0,16.,24.0,0.,24.0,0.,24.0,0.,24.0
1980-11-15 10:24:46.890 ,7,1,10.,24.0,0.,24.0,0.,24.0,0.,24.0
1980-11-15 10:25:10.890 ,7,0,7.,24.0,0.,24.0,0.,24.0,0.,24.0
1980-11-15 10:25:34.890 ,6,1,8.,24.0,0.,24.0,0.,24.0,0.,24.0
1980-11-15 10:25:58.890 ,6,0,0.,24.0,0.,24.0,1.,24.0,0.,24.0
1980-11-15 10:26:22.890 ,5,1,0.,24.0,0.,24.0,0.,24.0,0.,24.0
1980-11-15 10:26:46.890 ,5,0,0.,24.0,0.,24.0,0.,24.0,0.,24.0
1980-11-15 10:27:10.890 ,4,1,0.,24.0,0.,24.0,1.,24.0,0.,24.0
1980-11-15 10:27:34.890 ,4,0,0.,24.0,0.,24.0,1.,24.0,0.,24.0
1980-11-15 10:27:58.890 ,3,1,0.,24.0,0.,24.0,0.,24.0,0.,24.0
1980-11-15 10:28:22.890 ,3,0,0.,24.0,0.,24.0,1.,24.0,0.,24.0
1980-11-15 10:28:46.890 ,2,1,0.,24.0,0.,24.0,1.,24.0,0.,24.0
1980-11-15 10:29:10.890 ,2,0,0.,24.0,0.,24.0,0.,24.0,0.,24.0
1980-11-15 10:29:34.890 ,1,1,0.,24.0,0.,24.0,0.,24.0,0.,24.0
1980-11-15 10:29:58.890 ,1,0,0.,24.0,0.,24.0,0.,24.0,0.,24.0
1980-11-15 10:30:22.890 ,0,1,0.,24.0,0.,24.0,0.,24.0,0.,24.0
1980-11-15 10:30:46.890 ,0,0,0.,24.0,0.,24.0,0.,24.0,0.,24.0
1980-11-15 10:31:10.890 ,0,1,0.,24.0,0.,24.0,0.,24.0,0.,24.0
1980-11-15 10:31:34.890 ,0,0,0.,24.0,0.,24.0,0.,24.0,0.,24.0
1980-11-15 10:31:58.890 ,1,1,0.,24.0,0.,24.0,0.,24.0,0.,24.0
1980-11-15 10:32:22.890 ,1,0,0.,24.0,0.,24.0,0.,24.0,0.,24.0
1980-11-15 10:32:46.890 ,2,1,0.,24.0,0.,24.0,1.,24.0,0.,24.0
1980-11-15 10:33:10.890 ,2,0,0.,24.0,0.,24.0,0.,24.0,0.,24.0
1980-11-15 10:33:34.890 ,3,1,0.,24.0,0.,24.0,0.,24.0,0.,24.0
1980-11-15 10:33:58.890 ,3,0,0.,24.0,0.,24.0,1.,24.0,0.,24.0
1980-11-15 10:34:22.890 ,4,1,0.,24.0,0.,24.0,1.,24.0,0.,24.0
1980-11-15 10:34:46.890 ,4,0,0.,24.0,0.,24.0,1.,24.0,0.,24.0
1980-11-15 10:35:10.890 ,5,1,0.,24.0,0.,24.0,2.,24.0,0.,24.0
1980-11-15 10:35:34.890 ,5,0,0.,24.0,0.,24.0,0.,24.0,0.,24.0
1980-11-15 10:35:58.890 ,6,1,0.,24.0,0.,24.0,0.,24.0,0.,24.0
1980-11-15 10:36:22.890 ,6,0,0.,24.0,0.,24.0,0.,24.0,0.,24.0
1980-11-15 10:36:46.890 ,7,1,3.,24.0,0.,24.0,0.,24.0,0.,24.0
1980-11-15 10:37:10.890 ,7,0,9.,24.0,0.,24.0,0.,24.0,0.,24.0
1980-11-15 10:37:34.890 ,7,1,8.,24.0,0.,24.0,0.,24.0,0.,24.0
1980-11-15 10:37:58.890 ,7,0,13.,24.0,0.,24.0,0.,24.0,0.,24.0
1980-11-15 10:38:22.890 ,6,1,5.,24.0,0.,24.0,0.,24.0,0.,24.0
1980-11-15 10:38:46.890 ,6,0,0.,24.0,1.,24.0,0.,24.0,0.,24.0
1980-11-15 10:39:10.890 ,5,1,0.,24.0,0.,24.0,1.,24.0,0.,24.0
1980-11-15 10:39:34.890 ,5,0,0.,24.0,0.,24.0,0.,24.0,0.,24.0
1980-11-15 10:39:58.890 ,4,1,0.,24.0,0.,24.0,0.,24.0,0.,24.0
1980-11-15 10:40:22.890 ,4,0,0.,24.0,0.,24.0,0.,24.0,0.,24.0
1980-11-15 10:40:46.890 ,3,1,0.,24.0,0.,24.0,0.,24.0,0.,24.0
1980-11-15 10:41:10.890 ,3,0,0.,24.0,0.,24.0,0.,24.0,0.,24.0
1980-11-15 10:41:34.890 ,2,1,0.,24.0,0.,24.0,0.,24.0,0.,24.0
1980-11-15 10:41:58.890 ,2,0,0.,24.0,0.,24.0,1.,24.0,0.,24.0
1980-11-15 10:42:22.890 ,1,1,0.,24.0,0.,24.0,1.,24.0,0.,24.0
1980-11-15 10:42:46.890 ,1,0,0.,24.0,0.,24.0,1.,24.0,0.,24.0
1980-11-15 10:43:10.890 ,0,1,0.,24.0,0.,24.0,0.,24.0,0.,24.0
1980-11-15 10:43:34.890 ,0,0,0.,24.0,0.,24.0,0.,24.0,0.,24.0
1980-11-15 10:43:58.890 ,0,1,0.,24.0,0.,24.0,1.,24.0,0.,24.0
1980-11-15 10:44:22.890 ,0,0,0.,24.0,0.,24.0,1.,24.0,0.,24.0
1980-11-15 10:44:46.890 ,1,1,0.,24.0,0.,24.0,0.,24.0,0.,24.0
1980-11-15 10:45:10.890 ,1,0,1.,24.0,1.,24.0,1.,24.0,0.,24.0
1980-11-15 10:45:34.890 ,2,1,0.,24.0,0.,24.0,0.,24.0,0.,24.0
1980-11-15 10:45:58.890 ,2,0,0.,24.0,0.,24.0,0.,24.0,0.,24.0
1980-11-15 10:46:22.890 ,3,1,0.,24.0,0.,24.0,0.,24.0,0.,24.0
1980-11-15 10:46:46.890 ,3,0,0.,24.0,0.,24.0,0.,24.0,0.,24.0
1980-11-15 10:47:10.890 ,4,1,0.,24.0,0.,24.0,2.,24.0,0.,24.0
1980-11-15 10:47:34.890 ,4,0,0.,24.0,0.,24.0,0.,24.0,0.,24.0
1980-11-15 10:47:58.890 ,5,1,0.,24.0,0.,24.0,0.,24.0,0.,24.0
1980-11-15 10:48:22.890 ,5,0,0.,24.0,0.,24.0,0.,24.0,0.,24.0
1980-11-15 10:48:46.890 ,6,1,0.,24.0,0.,24.0,1.,24.0,0.,24.0
1980-11-15 10:49:10.890 ,6,0,0.,24.0,0.,24.0,0.,24.0,0.,24.0
1980-11-15 10:49:34.890 ,7,1,3.,24.0,0.,24.0,1.,24.0,0.,24.0
1980-11-15 10:49:58.890 ,7,0,8.,24.0,0.,24.0,0.,24.0,0.,24.0
1980-11-15 10:50:22.890 ,7,1,12.,24.0,0.,24.0,0.,24.0,0.,24.0
1980-11-15 10:50:46.890 ,7,0,5.,24.0,0.,24.0,0.,24.0,0.,24.0
1980-11-15 10:51:10.890 ,6,1,15.,24.0,0.,24.0,0.,24.0,0.,24.0
1980-11-15 10:51:34.890 ,6,0,0.,24.0,0.,24.0,1.,24.0,0.,24.0
1980-11-15 10:51:58.890 ,5,1,0.,24.0,0.,24.0,1.,24.0,0.,24.0
1980-11-15 10:52:22.890 ,5,0,0.,24.0,0.,24.0,0.,24.0,0.,24.0
1980-11-15 10:52:46.890 ,4,1,0.,24.0,0.,24.0,0.,24.0,0.,24.0
1980-11-15 10:53:10.890 ,4,0,0.,24.0,0.,24.0,0.,24.0,0.,24.0
1980-11-15 10:53:34.890 ,3,1,0.,24.0,0.,24.0,0.,24.0,0.,24.0
1980-11-15 10:53:58.890 ,3,0,0.,24.0,0.,24.0,1.,24.0,0.,24.0
1980-11-15 10:54:22.890 ,2,1,0.,24.0,0.,24.0,1.,24.0,0.,24.0
1980-11-15 10:54:46.890 ,2,0,0.,24.0,0.,24.0,0.,24.0,0.,24.0
1980-11-15 10:55:10.890 ,1,1,0.,24.0,0.,24.0,0.,24.0,0.,24.0
1980-11-15 10:55:34.890 ,1,0,0.,24.0,0.,24.0,1.,24.0,0.,24.0
1980-11-15 10:55:58.890 ,0,1,0.,24.0,0.,24.0,0.,24.0,0.,24.0
1980-11-15 10:56:22.890 ,0,0,0.,24.0,0.,24.0,1.,24.0,0.,24.0
1980-11-15 10:56:46.890 ,0,1,0.,24.0,0.,24.0,0.,24.0,0.,24.0
1980-11-15 10:57:10.890 ,0,0,0.,24.0,0.,24.0,1.,24.0,0.,24.0
1980-11-15 10:57:34.890 ,1,1,0.,24.0,0.,24.0,1.,24.0,0.,24.0
1980-11-15 10:57:58.890 ,1,0,0.,24.0,0.,24.0,0.,24.0,0.,24.0
1980-11-15 10:58:22.890 ,2,1,0.,24.0,0.,24.0,1.,24.0,0.,24.0
1980-11-15 10:58:46.890 ,2,0,1.,24.0,0.,24.0,1.,24.0,0.,24.0
1980-11-15 10:59:10.890 ,3,1,0.,24.0,0.,24.0,0.,24.0,0.,24.0
1980-11-15 10:59:34.890 ,3,0,0.,24.0,0.,24.0,1.,24.0,0.,24.0
1980-11-15 10:59:58.890 ,2,1,0.,24.0,0.,24.0,0.,24.0,0.,24.0
1980-11-15 11:00:22.890 ,2,0,0.,24.0,0.,24.0,0.,24.0,0.,24.0
1980-11-15 11:00:46.890 ,5,1,0.,24.0,0.,24.0,1.,24.0,0.,24.0
1980-11-15 11:01:10.890 ,5,0,0.,24.0,0.,24.0,1.,24.0,0.,24.0
1980-11-15 11:01:34.890 ,6,1,0.,24.0,0.,24.0,2.,24.0,0.,24.0
1980-11-15 11:01:58.890 ,6,0,0.,24.0,0.,24.0,1.,24.0,0.,24.0
1980-11-15 11:02:22.890 ,7,1,2.,24.0,0.,24.0,1.,24.0,0.,24.0
1980-11-15 11:02:46.890 ,7,0,13.,24.0,0.,24.0,0.,24.0,0.,24.0
1980-11-15 11:03:10.890 ,7,1,7.,24.0,0.,24.0,0.,24.0,0.,24.0
1980-11-15 11:03:34.890 ,7,0,7.,24.0,0.,24.0,0.,24.0,0.,24.0
1980-11-15 11:03:58.890 ,6,1,7.,24.0,0.,24.0,0.,24.0,0.,24.0
1980-11-15 11:04:22.890 ,6,0,0.,24.0,0.,24.0,0.,24.0,0.,24.0
1980-11-15 11:04:46.890 ,5,1,0.,24.0,0.,24.0,0.,24.0,0.,24.0
1980-11-15 11:05:10.890 ,5,0,0.,24.0,0.,24.0,1.,24.0,0.,24.0
1980-11-15 11:05:34.890 ,4,1,0.,24.0,0.,24.0,0.,24.0,0.,24.0
1980-11-15 11:05:58.890 ,4,0,0.,24.0,0.,24.0,0.,24.0,0.,24.0
1980-11-15 11:06:22.890 ,3,1,0.,24.0,0.,24.0,0.,24.0,0.,24.0
1980-11-15 11:06:46.890 ,3,0,0.,24.0,0.,24.0,1.,24.0,0.,24.0
1980-11-15 11:07:10.890 ,2,1,0.,24.0,0.,24.0,0.,24.0,0.,24.0
1980-11-15 11:07:34.890 ,2,0,0.,24.0,0.,24.0,0.,24.0,0.,24.0
1980-11-15 11:07:58.890 ,1,1,0.,24.0,0.,24.0,0.,24.0,0.,24.0
1980-11-15 11:08:22.890 ,1,0,0.,24.0,0.,24.0,1.,24.0,0.,24.0
1980-11-15 11:08:46.890 ,0,1,0.,24.0,0.,24.0,0.,24.0,0.,24.0
1980-11-15 11:09:10.890 ,0,0,0.,24.0,0.,24.0,1.,24.0,0.,24.0
1980-11-15 11:09:34.890 ,0,1,0.,24.0,0.,24.0,1.,24.0,0.,24.0
1980-11-15 11:09:58.890 ,0,0,0.,24.0,0.,24.0,3.,24.0,0.,24.0
1980-11-15 11:10:22.890 ,1,1,0.,24.0,0.,24.0,0.,24.0,0.,24.0
1980-11-15 11:10:46.890 ,1,0,0.,24.0,0.,24.0,0.,24.0,0.,24.0
1980-11-15 11:11:10.890 ,2,1,0.,24.0,0.,24.0,0.,24.0,0.,24.0
1980-11-15 11:11:34.890 ,2,0,0.,24.0,0.,24.0,1.,24.0,0.,24.0
1980-11-15 11:11:58.890 ,3,1,0.,24.0,0.,24.0,0.,24.0,0.,24.0
1980-11-15 11:12:22.890 ,3,0,0.,24.0,0.,24.0,0.,24.0,0.,24.0
1980-11-15 11:12:46.890 ,4,1,0.,24.0,0.,24.0,0.,24.0,0.,24.0
1980-11-15 11:13:10.890 ,4,0,0.,24.0,0.,24.0,0.,24.0,0.,24.0
1980-11-15 11:13:34.890 ,5,1,0.,24.0,0.,24.0,1.,24.0,0.,24.0
1980-11-15 11:13:58.890 ,5,0,0.,24.0,0.,24.0,0.,24.0,0.,24.0
1980-11-15 11:14:22.890 ,6,1,0.,24.0,0.,24.0,1.,24.0,0.,24.0
1980-11-15 11:14:46.890 ,6,0,0.,24.0,0.,24.0,1.,24.0,0.,24.0
1980-11-15 11:15:10.890 ,7,1,3.,24.0,0.,24.0,0.,24.0,0.,24.0
1980-11-15 11:15:34.890 ,7,0,8.,24.0,0.,24.0,0.,24.0,0.,24.0
1980-11-15 11:15:58.890 ,7,1,13.,24.0,0.,24.0,0.,24.0,0.,24.0
1980-11-15 11:16:22.890 ,7,0,7.,24.0,0.,24.0,1.,24.0,0.,24.0
1980-11-15 11:16:46.890 ,6,1,5.,24.0,0.,24.0,0.,24.0,0.,24.0
1980-11-15 11:17:10.890 ,6,0,0.,24.0,0.,24.0,1.,24.0,0.,24.0
1980-11-15 11:17:34.890 ,5,1,0.,24.0,0.,24.0,0.,24.0,0.,24.0
1980-11-15 11:17:58.890 ,5,0,0.,24.0,0.,24.0,1.,24.0,0.,24.0
1980-11-15 11:18:22.890 ,4,1,0.,24.0,0.,24.0,0.,24.0,0.,24.0
1980-11-15 11:18:46.890 ,4,0,0.,24.0,0.,24.0,0.,24.0,0.,24.0
1980-11-15 11:19:10.890 ,3,1,0.,24.0,0.,24.0,0.,24.0,0.,24.0
1980-11-15 11:19:34.890 ,3,0,0.,24.0,0.,24.0,0.,24.0,0.,24.0
1980-11-15 11:19:58.890 ,2,1,0.,24.0,0.,24.0,0.,24.0,0.,24.0
1980-11-15 11:20:22.890 ,0,0,0.,24.0,0.,24.0,0.,24.0,0.,24.0
1980-11-15 11:20:46.290 ,0,0,,0,,0,,0,,0
1980-11-15 11:20:46.890 ,1,1,0.,24.0,0.,24.0,0.,24.0,0.,24.0
1980-11-15 11:21:10.890 ,1,0,0.,24.0,0.,24.0,0.,24.0,0.,24.0
1980-11-15 11:21:34.890 ,0,1,0.,24.0,0.,24.0,0.,24.0,0.,24.0
1980-11-15 11:21:58.890 ,0,0,1.,24.0,0.,24.0,1.,24.0,0.,24.0
1980-11-15 11:22:22.890 ,0,1,0.,24.0,0.,24.0,0.,24.0,0.,24.0
1980-11-15 11:22:46.890 ,0,0,0.,24.0,0.,24.0,2.,24.0,0.,24.0
1980-11-15 11:23:10.890 ,1,1,0.,24.0,0.,24.0,0.,24.0,0.,24.0
1980-11-15 11:23:34.890 ,1,0,0.,24.0,0.,24.0,1.,24.0,0.,24.0
1980-11-15 11:23:58.890 ,2,1,0.,24.0,0.,24.0,1.,24.0,0.,24.0
1980-11-15 11:24:22.890 ,2,0,0.,24.0,0.,24.0,1.,24.0,0.,24.0
1980-11-15 11:24:46.890 ,3,1,0.,24.0,0.,24.0,1.,24.0,0.,24.0
1980-11-15 11:25:10.890 ,3,0,0.,24.0,0.,24.0,1.,24.0,0.,24.0
1980-11-15 11:25:34.890 ,4,1,0.,24.0,0.,24.0,0.,24.0,0.,24.0
1980-11-15 11:25:58.890 ,4,0,1.,24.0,0.,24.0,0.,24.0,0.,24.0
1980-11-15 11:26:22.890 ,5,1,0.,24.0,0.,24.0,0.,24.0,0.,24.0
1980-11-15 11:26:46.890 ,5,0,0.,24.0,0.,24.0,1.,24.0,0.,24.0
1980-11-15 11:27:10.890 ,6,1,0.,24.0,0.,24.0,2.,24.0,0.,24.0
1980-11-15 11:27:34.890 ,6,0,0.,24.0,0.,24.0,0.,24.0,0.,24.0
1980-11-15 11:27:58.890 ,7,1,2.,24.0,0.,24.0,0.,24.0,0.,24.0
1980-11-15 11:28:22.890 ,7,0,8.,24.0,0.,24.0,0.,24.0,0.,24.0
1980-11-15 11:28:46.890 ,7,1,14.,24.0,0.,24.0,0.,24.0,0.,24.0
1980-11-15 11:29:10.890 ,7,0,8.,24.0,0.,24.0,1.,24.0,0.,24.0
1980-11-15 11:29:34.890 ,6,1,10.,24.0,0.,24.0,0.,24.0,0.,24.0
1980-11-15 11:29:58.890 ,6,0,0.,24.0,0.,24.0,0.,24.0,0.,24.0
1980-11-15 11:30:22.890 ,5,1,0.,24.0,0.,24.0,0.,24.0,0.,24.0
1980-11-15 11:30:46.890 ,5,0,0.,24.0,0.,24.0,0.,24.0,0.,24.0
1980-11-15 11:31:10.890 ,4,1,0.,24.0,0.,24.0,0.,24.0,0.,24.0
1980-11-15 11:31:34.890 ,4,0,0.,24.0,0.,24.0,1.,24.0,0.,24.0
1980-11-15 11:31:58.890 ,3,1,0.,24.0,0.,24.0,0.,24.0,0.,24.0
1980-11-15 11:32:22.890 ,3,0,0.,24.0,0.,24.0,0.,24.0,0.,24.0
1980-11-15 11:32:46.890 ,2,1,0.,24.0,0.,24.0,3.,24.0,0.,24.0
1980-11-15 11:33:10.890 ,2,0,0.,24.0,0.,24.0,0.,24.0,0.,24.0
1980-11-15 11:33:34.890 ,1,1,0.,24.0,0.,24.0,0.,24.0,0.,24.0
1980-11-15 11:33:58.890 ,1,0,0.,24.0,0.,24.0,1.,24.0,0.,24.0
1980-11-15 11:34:22.890 ,0,1,0.,24.0,0.,24.0,0.,24.0,0.,24.0
1980-11-15 11:34:46.890 ,0,0,0.,24.0,0.,24.0,0.,24.0,0.,24.0
1980-11-15 11:35:10.890 ,0,1,0.,24.0,0.,24.0,1.,24.0,0.,24.0
1980-11-15 11:35:34.890 ,0,0,0.,24.0,0.,24.0,0.,24.0,0.,24.0
1980-11-15 11:35:58.890 ,1,1,0.,24.0,0.,24.0,2.,24.0,0.,24.0
1980-11-15 11:36:22.890 ,1,0,0.,24.0,0.,24.0,0.,24.0,0.,24.0
1980-11-15 11:36:46.890 ,2,1,0.,24.0,0.,24.0,0.,24.0,0.,24.0
1980-11-15 11:37:10.890 ,2,0,0.,24.0,0.,24.0,0.,24.0,0.,24.0
1980-11-15 11:37:34.890 ,3,1,0.,24.0,0.,24.0,0.,24.0,0.,24.0
1980-11-15 11:37:58.890 ,3,0,0.,24.0,0.,24.0,1.,24.0,0.,24.0
1980-11-15 11:38:22.890 ,4,1,0.,24.0,0.,24.0,2.,24.0,0.,24.0
1980-11-15 11:38:46.890 ,4,0,0.,24.0,0.,24.0,0.,24.0,0.,24.0
1980-11-15 11:39:10.890 ,5,1,0.,24.0,0.,24.0,0.,24.0,0.,24.0
1980-11-15 11:39:34.890 ,5,0,0.,24.0,0.,24.0,0.,24.0,0.,24.0
1980-11-15 11:39:58.890 ,6,1,0.,24.0,0.,24.0,0.,24.0,0.,24.0
1980-11-15 11:40:22.890 ,6,0,0.,24.0,0.,24.0,1.,24.0,0.,24.0